Location: Bruderhein
(53.8035°N, 112.9265°W)
Time: 12:55:28
(UTC+00:00)

SEEDS - Pass Details

Date: 03 April 2023
Orbit: 568 x 587 km, 97.7° (Epoch: 03 June)

Event Time Altitude Azimuth Distance (km) Brightness Sun altitude
Rises 11:05:00 0° 19° (NNE) 2,840 ? -16.5°
Reaches altitude 10° 11:07:19 10° 28° (NNE) 1,934 ? -16.2°
Maximum altitude 11:11:14 37° 97° (E) 930 ? -15.7°
Drops below altitude 10° 11:15:07 10° 165° (SSE) 1,918 ? -15.2°
Enters shadow 11:17:15 - 174° (S) 2,760 ? -15.0°
